Theta_e
296 298 300 302 304 306 307 308 315 320 319 324 327 328 328 328 328 328 328 327 326 325 325 324 324 324 323 323 322 322 322 321 321 321 322 322 320 320 319 318 317 314 313
293 294 297 299 301 302 304 307 308 309 320 321 322 325 327 327 327 327 328 327 326 326 325 325 325 325 324 324 323 322 322 322 321 321 322 320 320 316 316 314 310 309 309
291 292 294 296 297 297 299 302 304 305 307 319 322 323 324 325 326 326 327 327 326 326 326 325 325 325 324 324 323 323 322 322 321 321 321 316 313 311 309 309 307 305 303
289 290 291 293 293 293 294 297 299 302 304 307 316 318 321 322 323 324 325 326 326 325 325 325 325 324 324 323 323 322 322 321 320 319 317 308 308 306 303 304 301 301 299
288 289 289 290 290 289 290 292 294 297 300 302 304 313 316 317 319 322 323 324 325 325 324 325 325 324 324 323 322 321 320 319 318 315 308 303 300 298 299 301 299 297 295
286 287 287 287 287 286 288 289 291 293 296 299 301 302 308 313 313 313 315 318 320 321 322 322 323 322 322 322 322 321 320 318 315 312 306 302 302 304 302 300 296 293 293
284 284 283 284 283 284 286 288 290 291 293 295 297 298 299 303 307 309 310 311 313 315 317 317 318 318 319 318 317 317 317 317 316 316 310 308 308 309 304 296 295 295 295
280 280 279 279 280 281 283 286 289 291 292 294 295 296 297 298 299 302 305 308 309 310 310 312 314 315 313 311 311 310 309 309 309 310 310 310 308 307 305 304 299 295 293
277 276 276 276 278 278 280 283 286 289 291 292 294 296 297 298 299 300 301 303 304 306 307 308 309 310 311 307 306 305 303 302 302 303 304 304 304 303 302 300 294 291 288
273 273 273 274 275 276 278 280 284 288 290 291 293 296 297 298 299 299 300 299 299 302 304 305 305 305 304 303 303 302 298 298 298 297 297 297 298 297 297 298 296 292 289
271 271 272 272 273 274 276 279 282 287 289 291 292 295 296 297 297 298 298 296 297 298 300 301 302 302 301 300 300 300 301 298 294 295 294 293 293 292 292 292 293 294 291
269 269 270 271 272 273 275 278 282 287 289 290 291 292 294 296 295 295 295 295 295 294 296 299 298 298 297 296 296 297 297 295 293 291 290 289 289 290 290 290 290 291 291
267 268 269 270 271 273 275 279 283 287 289 290 291 292 292 294 294 293 293 293 294 294 295 296 294 294 293 293 294 293 293 292 290 289 288 288 288 288 288 288 289 289 289
267 268 269 271 272 274 276 279 284 287 288 290 291 291 291 291 292 292 292 292 292 292 293 292 292 291 291 291 290 289 290 289 289 288 287 287 287 286 286 287 286 286 286
267 268 270 271 272 274 277 280 285 283 283 286 288 289 290 290 290 291 290 289 290 290 291 290 289 289 288 288 288 288 288 289 288 288 286 285 285 285 284 284 284 284 283
267 269 270 270 272 273 276 282 283 282 280 280 280 286 288 289 289 289 288 288 288 288 288 287 286 285 285 285 285 285 286 286 285 285 285 284 283 283 283 283 283 283 283
267 269 269 270 271 272 274 275 275 277 277 277 277 279 281 285 286 286 284 284 284 287 282 282 281 281 282 282 283 282 282 283 284 284 284 283 283 282 282 282 282 282 282
268 268 268 269 270 270 271 272 272 272 272 274 273 273 276 277 277 277 280 284 277 276 275 275 275 276 277 278 279 280 280 281 281 282 282 282 282 282 282 281 281 281 282
267 267 267 268 269 269 269 269 270 270 270 270 272 272 270 272 272 272 271 270 270 270 270 271 271 272 273 275 275 276 277 277 278 278 279 279 279 280 280 280 280 280 280
267 267 267 267 267 267 267 267 268 268 268 267 268 270 268 269 268 267 267 267 267 267 267 268 268 269 269 270 270 272 273 273 273 274 274 275 275 276 276 276 276 276 277
265 266 266 265 265 266 266 266 266 266 266 266 265 268 268 266 265 265 265 264 264 265 265 265 266 267 267 268 268 268 269 269 269 270 270 270 271 271 272 272 273 273 273
265 264 264 264 264 264 264 264 264 264 264 264 264 264 265 264 263 263 263 263 263 264 264 264 264 264 264 264 265 265 266 266 266 266 267 268 268 269 269 269 270 270 270
263 263 262 262 262 262 262 262 262 262 262 262 262 262 262 262 262 261 261 261 261 262 262 262 262 262 262 262 263 263 263 263 263 264 264 265 265 266 266 266 266 267 267
261 261 261 261 261 261 261 261 260 260 260 260 260 260 260 260 260 260 259 259 259 260 260 260 260 260 260 260 261 261 261 262 262 262 262 263 263 263 263 264 264 265 265
260 260 260 259 259 259 259 259 259 259 259 259 258 258 258 258 258 258 258 258 258 258 258 258 258 258 258 259 259 259 259 260 260 261 262 262 262 262 263 263 263 263 263
259 259 259 258 258 258 257 257 257 257 257 257 257 257 257 257 257 257 257 257 257 257 257 257 257 258 258 258 258 258 259 259 260 261 262 261 261 261 261 261 261 261 261
Wind_Speed
35 36 34 32 30 28 29 29 27 25 25 30 36 37 37 37 37 38 38 36 37 38 37 35 35 36 34 32 33 33 32 30 17 28 29 30 27 29 29 27 25 23 23
32 32 32 32 32 32 31 30 32 30 26 24 27 33 35 36 36 35 35 34 36 36 37 36 36 35 35 35 33 33 33 33 29 21 26 26 28 27 26 22 20 19 20
34 32 31 30 31 35 34 33 32 32 30 25 22 25 28 30 33 33 34 34 36 38 37 36 36 34 33 31 32 31 31 32 31 28 25 18 25 18 16 19 19 18 18
29 28 27 29 30 34 36 34 34 32 30 29 24 20 20 21 22 24 27 30 33 34 35 35 34 35 35 33 33 33 32 29 27 25 18 13 13 14 16 15 16 18 17
26 25 27 28 28 31 32 36 37 35 31 30 30 27 25 23 21 20 22 27 30 32 33 35 37 39 40 40 34 31 30 26 23 21 11 9 10 9 14 12 14 14 16
27 26 28 29 30 32 32 33 34 35 33 32 29 28 27 27 28 26 24 22 24 25 27 32 33 35 33 37 38 40 31 27 26 22 13 10 17 17 17 17 15 8 3
26 27 29 30 34 33 33 34 32 33 32 28 27 25 28 26 25 27 26 27 28 29 28 28 28 30 31 31 31 30 32 30 31 29 20 23 18 23 22 19 19 11 8
27 27 33 35 35 34 33 31 33 32 31 31 30 29 29 29 25 26 27 27 27 28 28 28 26 25 23 23 21 19 16 15 16 18 20 20 17 15 22 24 25 15 10
26 31 33 36 36 37 35 33 32 32 32 31 32 32 30 29 25 24 24 26 26 25 23 22 22 23 22 22 21 18 13 13 10 10 11 11 13 14 19 20 22 18 4
32 33 34 35 36 37 37 36 34 31 33 33 33 31 29 29 25 24 23 22 24 24 22 20 18 18 18 21 22 20 19 16 15 13 12 12 14 17 18 19 24 18 8
31 34 36 36 36 37 37 35 35 33 32 31 32 31 28 26 25 23 22 21 24 24 24 21 20 17 18 20 21 22 22 20 17 16 16 16 16 15 15 12 17 20 12
33 34 36 38 38 35 35 35 33 31 30 28 26 26 28 25 22 21 20 19 21 22 24 23 18 15 16 17 20 20 17 21 20 19 18 17 16 15 12 12 13 12 9
35 34 35 35 36 35 33 34 30 28 25 24 22 20 19 26 22 20 18 17 17 19 21 20 15 13 12 13 13 15 19 22 22 18 16 16 17 17 16 15 13 11 9
33 33 34 33 34 34 33 31 27 24 23 22 20 19 18 20 22 20 18 15 14 15 13 12 14 14 13 15 18 18 19 19 19 16 16 17 17 17 16 14 12 10 11
29 31 31 32 33 33 32 29 14 18 24 21 20 19 17 14 18 18 14 13 12 11 14 16 15 13 14 15 14 14 14 14 14 15 18 17 15 15 11 9 9 10 5
27 29 32 31 31 30 30 24 13 14 24 31 37 23 14 12 10 4 5 6 2 6 7 7 8 7 6 8 11 13 12 12 13 15 15 14 13 11 10 9 9 10 9
27 28 30 29 29 28 27 24 21 24 20 28 33 36 36 26 20 17 19 18 14 10 20 18 17 16 13 10 10 12 12 11 11 12 13 11 10 10 10 9 8 9 7
28 26 26 27 27 27 26 24 23 22 23 28 30 31 31 34 34 30 20 17 27 28 26 22 22 21 20 17 14 13 11 10 9 9 9 8 7 7 7 6 7 7 7
26 26 27 25 26 26 26 26 25 24 24 25 30 36 35 27 35 36 33 33 24 25 25 26 24 22 19 17 16 15 14 13 12 11 11 8 6 3 2 2 2 3 3
25 27 29 26 24 25 25 25 25 24 24 26 28 29 31 35 36 32 34 31 29 27 26 24 22 20 19 18 16 14 13 14 14 12 10 8 6 4 3 4 3 3 3
25 25 26 24 23 22 23 23 22 22 22 22 24 28 26 27 24 25 25 26 25 24 23 21 20 19 18 17 16 15 15 13 12 11 10 9 8 8 6 5 5 5 6
22 23 23 20 21 21 21 20 21 20 21 21 22 24 25 26 24 24 24 24 23 21 20 19 18 18 17 17 16 14 13 13 12 12 11 10 9 9 10 10 10 9 9
19 20 20 19 20 19 19 19 19 19 19 19 20 21 23 22 21 21 21 20 20 20 19 17 17 17 16 15 14 14 14 13 13 13 13 13 13 12 11 11 11 12 11
17 17 18 18 18 18 18 18 18 18 18 18 19 19 20 19 18 18 19 18 19 19 17 17 16 16 17 16 15 14 13 12 12 13 13 12 13 14 14 13 13 14 14
15 16 16 17 18 18 19 19 18 19 19 18 19 19 19 19 18 18 18 18 20 19 18 18 17 17 17 17 15 14 13 12 12 11 12 14 15 15 14 14 15 15 15
12 13 14 15 17 17 18 19 19 19 19 19 19 19 19 19 19 19 19 20 21 20 20 20 20 19 18 18 17 16 16 15 15 15 15 12 12 14 15 15 15 16 17
Wind_Direction
358 356 354 348 343 341 339 340 332 319 298 278 270 265 260 253 247 240 238 235 230 233 233 233 235 238 238 236 236 236 236 233 244 258 255 255 241 240 245 244 252 253 255
354 353 353 350 347 343 338 333 335 328 319 301 284 275 270 266 262 248 242 236 233 232 232 233 236 237 235 237 236 233 234 235 239 253 253 240 236 232 235 242 247 254 252
352 352 351 348 347 342 338 333 329 328 322 313 302 284 278 275 271 264 250 243 238 236 234 234 236 235 235 237 237 236 235 234 235 242 250 230 222 222 238 231 238 244 243
348 347 347 346 340 337 336 333 328 324 321 314 302 298 292 286 281 279 271 257 244 241 242 238 237 238 239 239 238 238 239 240 236 236 240 206 209 223 219 221 224 233 230
344 342 340 336 334 335 333 331 329 324 318 309 303 294 290 290 286 280 271 266 260 254 247 248 251 250 249 249 241 243 240 238 237 229 192 189 189 190 209 214 220 222 219
341 337 335 332 331 331 329 327 325 324 323 316 306 299 288 282 284 283 279 275 268 264 261 261 262 259 261 258 255 250 242 234 228 219 204 196 205 207 211 200 185 178 209
336 333 334 330 325 326 324 324 321 320 321 312 308 306 300 291 283 279 279 275 273 272 271 270 267 265 262 258 256 257 255 245 246 247 225 225 218 228 210 193 188 176 177
333 333 332 329 322 320 319 316 317 316 310 309 305 301 299 298 297 290 285 276 275 272 270 266 263 263 255 246 238 233 230 230 232 237 239 238 231 221 209 206 194 168 156
337 332 327 324 319 318 315 313 311 307 306 302 303 300 295 292 292 286 281 277 272 269 267 262 257 250 250 236 226 214 204 207 206 204 205 200 197 199 192 179 167 154 142
333 327 322 318 315 311 308 306 305 301 300 300 298 299 293 288 287 284 279 277 274 267 258 256 249 242 232 221 218 208 196 193 188 173 163 164 173 177 181 196 189 167 137
326 322 319 317 313 309 306 305 303 299 299 295 294 297 292 287 286 282 277 273 268 265 255 251 247 241 231 224 222 219 214 200 182 179 169 165 166 169 176 183 189 191 161
328 322 319 321 316 309 306 305 302 298 298 294 290 289 292 289 280 279 276 272 270 263 259 255 244 230 221 216 216 219 210 190 181 173 162 158 162 156 156 166 174 178 180
328 325 322 319 318 314 308 304 300 300 295 293 289 284 282 290 278 272 273 273 268 258 258 254 229 209 205 203 203 195 191 182 171 160 158 159 165 157 151 149 151 153 145
330 328 328 324 320 318 314 304 299 300 301 299 293 287 282 278 276 267 268 266 257 252 246 206 190 181 181 164 158 170 177 176 167 160 159 164 159 157 154 157 147 156 152
335 335 334 330 325 323 318 308 359 33 22 6 325 290 284 271 270 272 273 278 262 230 186 168 162 159 156 159 156 163 164 169 171 170 163 157 158 155 151 158 163 164 154
346 346 340 335 333 334 335 336 348 17 23 25 22 11 322 285 293 277 289 299 256 163 123 93 77 89 92 111 121 125 129 141 149 154 152 151 155 150 143 152 170 179 175
354 353 347 346 346 346 352 358 356 2 20 24 24 28 40 51 62 74 88 82 72 106 68 55 50 49 53 68 86 97 90 100 128 140 141 145 144 151 160 173 174 176 176
9 1 359 354 357 358 3 8 13 14 10 9 20 25 34 44 50 52 63 81 58 60 56 55 61 56 48 52 57 63 71 78 87 92 100 110 133 163 171 188 192 191 197
16 7 5 3 5 9 12 14 17 19 21 17 18 25 30 35 55 52 56 55 44 42 44 49 47 53 57 59 52 53 59 59 62 70 68 70 72 86 114 138 189 210 218
21 21 21 7 6 11 16 18 17 17 20 21 21 23 25 36 38 39 44 44 43 38 38 42 45 46 46 41 38 45 50 44 44 44 44 39 29 25 9 343 326 305 281
16 20 28 6 8 14 17 18 17 19 19 20 19 23 31 42 37 37 36 37 38 38 34 34 34 34 31 30 29 26 23 27 26 20 18 16 8 359 342 325 314 305 295
23 16 22 7 2 13 17 18 20 20 21 19 15 19 27 35 35 34 32 31 30 30 29 25 26 25 22 19 15 13 14 8 1 354 351 344 339 330 323 321 315 309 301
22 22 15 15 11 4 15 18 17 17 17 18 17 16 21 22 24 24 24 23 18 17 18 20 15 10 8 6 4 1 355 351 344 335 331 330 325 321 317 314 309 305 303
18 22 18 14 12 12 9 11 11 12 13 12 12 13 13 13 13 13 13 11 6 9 9 9 5 360 355 353 353 350 345 345 335 328 323 321 315 310 307 303 300 297 294
19 17 17 13 11 7 8 8 7 6 7 7 5 6 3 5 5 2 2 358 356 358 358 357 356 352 350 347 344 340 334 328 324 329 328 321 312 306 303 303 302 299 293
13 15 14 9 6 5 4 2 1 0 0 358 357 357 356 356 353 353 352 348 347 347 347 346 346 344 342 340 337 335 332 330 335 334 322 314 307 304 303 301 299 297 292